Location: ROBOsky.com Wild Flower Ridge Observatory
(43.9736°N, 79.9739°W)
Time: 03:48:17
(UTC-04:00)

USA 129 - Visible Passes

Search period start: 01 August 2014 00:00
Search period end: 11 August 2014 00:00
Orbit: 241 x 674 km, 97.5° (Epoch: 24 April)

Date Brightness Start Highest point End Pass type
(mag) Time Alt. Az. Time Alt. Az. Time Alt. Az.
01 Aug 3.4 22:14:20 22° SSE 22:16:57 71° ENE 22:21:11 10° N visible
01 Aug 6.1 23:48:05 10° WSW 23:49:26 11° W 23:50:47 10° WNW visible
02 Aug 4.9 21:28:43 10° ESE 21:32:00 24° ENE 21:35:22 10° NNE visible
02 Aug 4.8 23:01:40 21° SSW 23:03:49 34° W 23:07:41 10° NNW visible
03 Aug 3.4 22:15:56 24° SSE 22:18:25 73° ENE 22:22:37 10° N visible
03 Aug 6.2 23:49:38 10° WSW 23:50:51 11° W 23:52:04 10° WNW visible
04 Aug 4.8 21:30:05 11° ESE 21:33:11 24° ENE 21:36:33 10° NNE visible
04 Aug 4.8 23:03:01 22° SW 23:05:00 34° W 23:08:49 10° NNW visible
05 Aug 3.4 22:17:03 26° SSE 22:19:21 74° ENE 22:23:30 10° N visible
05 Aug 6.2 23:50:38 10° WSW 23:51:45 11° W 23:52:52 10° WNW visible
06 Aug 4.8 21:30:57 12° ESE 21:33:52 24° ENE 21:37:11 10° NNE visible
06 Aug 4.8 23:03:53 23° SW 23:05:40 33° W 23:09:27 10° NNW visible
07 Aug 3.4 22:17:40 28° SSE 22:19:46 74° ENE 22:23:52 10° N visible
07 Aug 6.2 23:51:05 10° WSW 23:52:08 11° W 23:53:10 10° WNW visible
08 Aug 4.8 21:31:21 13° ESE 21:34:02 23° ENE 21:37:16 10° NNE visible
08 Aug 4.8 23:04:15 25° SW 23:05:49 33° W 23:09:32 10° NNW visible
09 Aug 3.3 22:17:48 31° SSE 22:19:40 72° ENE 22:23:42 10° N visible
09 Aug 6.2 23:50:57 10° WSW 23:51:59 11° W 23:53:00 10° WNW visible
10 Aug 4.8 21:31:14 14° ESE 21:33:40 23° ENE 21:36:48 10° NNE visible
10 Aug 4.7 23:04:07 27° SW 23:05:26 34° W 23:09:06 10° NNW visible
